[Iaude] MPEC E44: 2024 EB1 [a=1.67,e=0.68,i=14.5,H=22.9]
    mpec at cfa.harvard.edu 
    mpec at cfa.harvard.edu
       
    Mon Mar  4 18:18:10 EST 2024
    
    
  
M.P.E.C. 2024-E44                                 Issued 2024 March 4, 23:16 UT
     The Minor Planet Electronic Circulars contain information on unusual
         minor planets, routine data on comets and natural satellites,
         and occasional editorial announcements.  They are published
    on behalf of Division F of the International Astronomical Union by the
          Minor Planet Center, Smithsonian Astrophysical Observatory,
                          Cambridge, MA 02138, U.S.A.
			  
             Prepared using the Tamkin Foundation Computer Network
                              MPC at CFA.HARVARD.EDU
            URL https://www.minorplanetcenter.net/    ISSN 1523-6714
                                    2024 EB1                                    
Observations:
     K24E01B 1C2024 02 17.50542 16 05 05.23 +39 03 14.1          21.5 GVEE044G96
     K24E01B 1C2024 02 17.51059 16 04 58.06 +39 03 26.4          22.3 GVEE044G96
     K24E01B* C2024 03 02.54700011 59 44.109+29 27 14.11         21.18wXEE044F52
     K24E01B  C2024 03 02.55878911 59 37.368+29 26 26.61         20.75wXEE044F52
     K24E01B  C2024 03 02.57066111 59 30.570+29 25 38.68         21.29wXEE044F52
     K24E01B KC2024 03 02.88737411 56 40.694+29 04 18.44         20.7 GVEE044J95
     K24E01B KC2024 03 02.94637011 56 08.630+29 00 30.49         20.6 GVEE044J95
     K24E01B KC2024 03 02.96140511 56 00.377+28 59 30.91         20.5 GVEE044J95
     K24E01B hC2024 03 03.03011411 55 22.52 +28 55 08.6          20.9 GVEE044L01
     K24E01B hC2024 03 03.03352011 55 20.67 +28 54 55.3          20.9 GVEE044L01
     K24E01B KC2024 03 03.25461911 53 25.61 +28 40 36.4          20.8 GVEE044H21
     K24E01B KC2024 03 03.26021111 53 22.64 +28 40 14.6          20.9 GVEE044H21
     K24E01B KC2024 03 03.26319411 53 21.04 +28 40 03.4          21.0 GVEE044H21
     K24E01B KB2024 03 04.05327411 46 46.65 +27 49 43.2          20.2 GXEE044I93
     K24E01B KB2024 03 04.06005711 46 43.32 +27 49 17.9          20.3 GXEE044I93
     K24E01B KB2024 03 04.06661811 46 40.06 +27 48 53.7                XEE044I93
Observer details:
F52 Pan-STARRS 2, Haleakala.  Observers J. Herman, T. Lowe, P. Minguez, A.
    Schultz, I. Smith.  Measurers K. Chambers, T. de Boer, J. Fairlamb, H.
    Gao, M. Huber, C.-C. Lin, E. Magnier, Y. Ramanjooloo, R. Wainscoat, R.
    Weryk.  1.8-m Ritchey-Chretien + CCD.
G96 Mt. Lemmon Survey.  Observers T. Beuden, J. K. Hogan.  Measurers B. Gray,
    D. Rankin, F. C. Shelly.  1.5-m reflector + 10K CCD.
H21 Astronomical Research Observatory, Westfield.  Observer R. Holmes.
    Measurers T. Linder, R. Holmes, L. Horn.  0.76-m f/3.0 astrograph + CCD.
I93 St Pardon de Conques.  Observer F. Losse.  0.40-m f/3.7 reflector + CCD.
J95 Great Shefford.  Observer P. Birtwhistle.  0.41-m f/6.3 Schmidt-Cassegrain
    + CCD.
L01 Visnjan Observatory, Tican.  Observer K. Korlevic.  1.0-m f/2.9 reflector
    + CCD.
Orbital elements:
2024 EB1                                                 Earth MOID = 0.1276 AU
Epoch 2024 Mar. 31.0 TT = JDT 2460400.5                 MPC                     
M  42.19308              (2000.0)            P               Q                  
n   0.45496274     Peri.   49.90610     +0.62763839     -0.77848567             
a   1.6742443      Node     1.25706     +0.61622567     +0.49248690             
e   0.6839255      Incl.   14.48696     +0.47574781     +0.38912301             
P   2.17           H   22.98          G   0.15           U   9                  
Residuals in seconds of arc
240217 G96  0.0   0.0     240302 J95  0.5+  0.4+    240303 H21  0.0   0.1+
240217 G96 (1.4-  0.9-)   240302 J95  0.4-  0.8-    240304 I93  0.1+  0.3-
240302 F52  0.1-  0.2-    240303 L01  0.2-  0.3+    240304 I93  0.2+  0.0
240302 F52  0.1+  0.1-    240303 L01  0.1-  0.4+    240304 I93  0.2-  0.5+
240302 F52  0.0   0.0     240303 H21  0.0   0.0
240302 J95  0.0   0.2-    240303 H21  0.1+  0.2-
Ephemeris:
2024 EB1                 a,e,i = 1.67, 0.68, 14                  q = 0.5292
Date    TT    R. A. (2000) Decl.     Delta      r    Elong.  Phase     V
2024 02 03    19 25 41.6 +19 46 12   0.2269  0.8364    43.7   125.5    24.7
...
2024 02 18    15 53 57.9 +39 21 33   0.1482  1.0224    99.2    72.6    21.4
...
2024 02 26    13 08 22.5 +35 52 07   0.1714  1.1190   135.8    38.1    20.9
...
2024 03 03    11 55 39.2 +28 57 21   0.2166  1.1895   153.8    21.6    21.1
2024 03 04    11 47 12.8 +27 53 18   0.2258  1.2011   155.8    19.8    21.1
2024 03 05    11 39 33.7 +26 51 59   0.2353  1.2126   157.5    18.3    21.2
...
2024 03 11    11 06 09.9 +21 42 59   0.2992  1.2805   161.4    14.3    21.7
...
2024 03 19    10 42 11.5 +16 58 34   0.3978  1.3681   155.8    17.4    22.6
...
2024 04 03    10 25 46.0 +11 40 13   0.6122  1.5228   140.5    24.7    24.0
A. U. Tomatic                (C) Copyright 2024 MPC           M.P.E.C. 2024-E44
    
    
More information about the Iaude
mailing list